This demonstration page uses our WeatherBlox Daily Observations layout. Learn more.

Left ArrowRight Arrow

Hourly Observations for September 26, 2015

Temp ( °F °C ) Dew Point ( °F °C ) Humidity (%) Winds ( mph kmh ) Pressure ( in mb ) Visibility ( mi km ) Precip ( " mm )
12:59 am 00:59 Cloudy with Light Rain 72 22.2 68 20 87 87 NE 16 26 30.16 1022 7 11 0.03 0.76
1:59 am 01:59 Cloudy with Rain 71 21.7 67 19.4 87 87 ENE 17 28 30.16 1021 4 6 0.04 1.02
2:59 am 02:59 Cloudy with Light Rain 68 20 63 17.2 84 84 NE 17 28 30.16 1021 6 10 0.06 1.52
3:59 am 03:59 Cloudy with Rain 69 20.6 65 18.3 87 87 NE 18 30 30.15 1021 4 6 0.07 1.78
4:59 am 04:59 Cloudy with Light Rain 68 20 64 17.8 87 87 NE 16 26 30.16 1021 6 10 0.10 2.54
5:59 am 05:59 Cloudy with Light Rain 70 21.1 66 18.9 87 87 ENE 15 24 30.17 1022 5 8 0.05 1.27
6:02 am 06:02 Cloudy with Light Rain 70 21.1 66 18.9 87 87 ENE 17 28 30.18 1022 5 8 0.00 0.03
6:59 am 06:59 Cloudy with Light Rain 70 21.1 66 18.9 87 87 ENE 16 26 30.19 1022 6 10 0.02 0.51
7:59 am 07:59 Cloudy with Light Rain 71 21.7 67 19.4 87 87 NE 15 24 30.20 1023 4 6 0.02 0.51
8:33 am 08:33 Cloudy with Mist and Fog 72 22.2 68 20 87 87 ENE 17 28 30.21 1023 6 10 0.00 0.03
8:59 am 08:59 Cloudy with Mist and Fog 72 22.2 68 20 87 87 ENE 17 28 30.21 1023 6 10 0.00 0.03
9:13 am 09:13 Cloudy with Mist and Fog 72 22.2 67 19.4 84 84 ENE 18 30 30.21 1023 6 10 0.00 0.00
9:59 am 09:59 Cloudy 73 22.8 67 19.4 81 81 ENE 18 30 30.22 1023 7 11 0.00 0.00
10:59 am 10:59 Cloudy with Light Rain 74 23.3 67 19.4 79 79 ENE 17 28 30.23 1024 6 10 0.00 0.03
11:09 am 11:09 Cloudy with Light Rain 73 22.8 67 19.4 81 81 ENE 21 33 30.24 1024 4 6 0.00 0.03
11:24 am 11:24 Cloudy with Light Rain 72 22.2 68 20 87 87 ENE 20 31 30.24 1024 3 4 0.01 0.25
11:29 am 11:29 Cloudy with Light Rain 72 22.2 68 20 87 87 ENE 18 30 30.24 1024 3 5 0.01 0.25
11:50 am 11:50 Cloudy with Light Rain 72 22.2 67 19.4 84 84 ENE 18 30 30.24 1024 7 11 0.01 0.25
11:59 am 11:59 Cloudy with Light Rain 72 22.2 67 19.4 84 84 ENE 16 26 30.23 1024 6 10 0.01 0.25
12:26 pm 12:26 Cloudy 74 23.3 68 20 82 82 ENE 15 24 30.24 1024 7 11 0.00 0.03
12:59 pm 12:59 Cloudy 73 22.8 67 19.4 81 81 NE 17 28 30.22 1023 7 11 0.00 0.03
1:11 pm 13:11 Cloudy with Rain 72 22.2 68 20 87 87 ENE 18 30 30.24 1024 2 3 0.02 0.51
1:18 pm 13:18 Cloudy with Rain 72 22.2 68 20 87 87 E 17 28 30.24 1024 1 2 0.03 0.76
1:33 pm 13:33 Cloudy with Heavy Rain 71 21.7 68 20 90 90 ENE 16 26 30.24 1024 1 2 0.13 3.30
1:38 pm 13:38 Cloudy with Heavy Rain 71 21.7 68 20 90 90 ENE 23 37 30.24 1024 1 2 0.15 3.81
1:50 pm 13:50 Cloudy with Rain 71 21.7 66 18.9 84 84 E 17 28 30.24 1024 2 3 0.17 4.32
1:59 pm 13:59 Cloudy with Rain 71 21.7 67 19.4 87 87 E 23 37 30.22 1024 2 3 0.20 5.08
2:10 pm 14:10 Cloudy with Rain 71 21.7 66 18.9 84 84 E 21 33 30.24 1024 3 5 0.01 0.25
2:55 pm 14:55 Cloudy with Light Rain 72 22 64 18 78 78 E 22 35 30.24 1024 4 6 0.02 0.51
2:59 pm 14:59 Cloudy with Light Rain 72 22.2 65 18.3 79 79 ENE 22 35 30.22 1024 4 6 0.03 0.76
3:59 pm 15:59 Cloudy with Rain 71 21.7 66 18.9 84 84 E 17 28 30.23 1024 3 5 0.03 0.76
4:59 pm 16:59 Cloudy 72 22.2 66 18.9 82 82 E 16 26 30.23 1024 7 11 0.01 0.25
5:59 pm 17:59 Cloudy 72 22.2 65 18.3 79 79 ENE 22 35 30.23 1024 7 11 0.00 0.03
6:43 pm 18:43 Cloudy 72 22.2 64 17.8 76 76 ENE 18 30 30.24 1024 7 11 0.00 0.00
6:59 pm 18:59 Cloudy 72 22.2 63 17.2 73 73 ENE 17 28 30.24 1024 7 11 0.00 0.00
7:59 pm 19:59 Cloudy 72 22.2 62 16.7 71 71 ENE 21 33 30.23 1024 9 14 0.00 0.00
8:59 pm 20:59 Cloudy 72 22.2 63 17.2 73 73 ENE 22 35 30.25 1025 8 13 0.00 0.00
9:59 pm 21:59 Cloudy 72 22.2 63 17.2 73 73 ENE 18 30 30.26 1025 8 13 0.00 0.00
10:59 pm 22:59 Cloudy 72 22.2 63 17.2 73 73 ENE 18 30 30.26 1025 8 13 0.00 0.00
11:59 pm 23:59 Cloudy 72 22.2 63 17.2 73 73 ENE 17 28 30.25 1024 8 13 0.00 0.00

Powered by AerisWeather